• In Uzbekistan
  • List of Countries
  • For 7 days
  • Water Temperature
  • Weather Map
  • Weather Widgets
  • user-avatar
    Login

    Hourly Weather Gjirokaster

    Today, 27 February, Thursday

    Time Temperature Precipitation Wind Pressure Humidity
    00:00 +1°C° 0.3 mm 3 mps 644 mmHg 92%
    01:00 +2°C° 0.3 mm 2 mps 643 mmHg 92%
    02:00 +1°C° 0.7 mm 3 mps 643 mmHg 91%
    03:00 0°C° 0.7 mm 4 mps 643 mmHg 90%
    04:00 0°C° 0.7 mm 5 mps 642 mmHg 89%
    05:00 0°C° 0.9 mm 5 mps 642 mmHg 83%
    06:00 -1°C° 0.9 mm 5 mps 643 mmHg 78%
    07:00 -2°C° 0.9 mm 6 mps 643 mmHg 73%
    08:00 -2°C° 0.1 mm 6 mps 643 mmHg 65%
    09:00 -1°C° 0.1 mm 7 mps 644 mmHg 57%
    10:00 0°C° 0.1 mm 7 mps 644 mmHg 49%
    11:00 -1°C° 0.4 mm 7 mps 644 mmHg 61%
    12:00 -2°C° 0.4 mm 6 mps 644 mmHg 72%
    13:00 -2°C° 0.4 mm 5 mps 644 mmHg 84%
    14:00 -2°C° 0.4 mm 5 mps 645 mmHg 83%
    15:00 -2°C° 0.4 mm 5 mps 645 mmHg 82%
    16:00 -2°C° 0.4 mm 5 mps 645 mmHg 81%
    17:00 -2°C° 0.2 mm 5 mps 646 mmHg 81%
    18:00 -3°C° 0.2 mm 4 mps 646 mmHg 81%
    19:00 -2°C° 0.2 mm 3 mps 647 mmHg 82%
    20:00 -2°C° 0 mm 3 mps 647 mmHg 82%
    21:00 -3°C° 0 mm 2 mps 647 mmHg 81%
    22:00 -1°C° 0 mm 1 mps 647 mmHg 81%
    23:00 -1°C° 0 mm 1 mps 648 mmHg 80%

    Tomorrow, 28 February, Friday

    Time Temperature Precipitation Wind Pressure Humidity
    00:00 -1°C° 0 mm 1 mps 648 mmHg 79%
    01:00 -2°C° 0 mm 0 mps 648 mmHg 79%
    02:00 -1°C° 0 mm 1 mps 648 mmHg 78%
    03:00 -1°C° 0 mm 1 mps 647 mmHg 78%
    04:00 -3°C° 0 mm 2 mps 647 mmHg 78%
    05:00 -3°C° 0 mm 2 mps 647 mmHg 78%
    06:00 -3°C° 0 mm 2 mps 647 mmHg 77%
    07:00 -3°C° 0 mm 2 mps 647 mmHg 77%
    08:00 -2°C° 0.4 mm 2 mps 647 mmHg 81%
    09:00 -2°C° 0.4 mm 3 mps 647 mmHg 85%
    10:00 -2°C° 0.4 mm 3 mps 647 mmHg 89%
    11:00 -2°C° 1.1 mm 3 mps 647 mmHg 90%
    12:00 -2°C° 1.1 mm 3 mps 646 mmHg 92%
    13:00 -2°C° 1.1 mm 2 mps 646 mmHg 94%
    14:00 -1°C° 0.9 mm 2 mps 646 mmHg 94%
    15:00 -1°C° 0.9 mm 2 mps 646 mmHg 94%
    16:00 +1°C° 0.9 mm 1 mps 646 mmHg 93%
    17:00 +1°C° 0.1 mm 1 mps 647 mmHg 93%
    18:00 +1°C° 0.1 mm 1 mps 647 mmHg 92%
    19:00 +1°C° 0.1 mm 1 mps 647 mmHg 92%
    20:00 0°C° 0 mm 1 mps 648 mmHg 91%
    21:00 -2°C° 0 mm 2 mps 648 mmHg 90%
    22:00 -2°C° 0 mm 2 mps 649 mmHg 89%
    23:00 -2°C° 0 mm 2 mps 649 mmHg 88%

    Day after tomorrow, 29 February, Saturday

    Time Temperature Precipitation Wind Pressure Humidity
    00:00 -2°C° 0 mm 2 mps 649 mmHg 87%
    01:00 -1°C° 0 mm 1 mps 649 mmHg 87%
    02:00 -1°C° 0 mm 1 mps 649 mmHg 86%
    03:00 -3°C° 0 mm 2 mps 649 mmHg 86%
    04:00 -3°C° 0 mm 2 mps 649 mmHg 86%
    05:00 -3°C° 0 mm 2 mps 649 mmHg 85%
    06:00 -3°C° 0 mm 2 mps 650 mmHg 83%
    07:00 -3°C° 0 mm 2 mps 650 mmHg 82%
    08:00 +1°C° 0 mm 1 mps 650 mmHg 73%
    09:00 +3°C° 0 mm 1 mps 651 mmHg 65%
    10:00 +4°C° 0 mm 1 mps 652 mmHg 57%
    11:00 +5°C° 0 mm 1 mps 652 mmHg 54%
    12:00 +6°C° 0 mm 1 mps 652 mmHg 51%
    13:00 +7°C° 0 mm 1 mps 652 mmHg 48%
    14:00 +7°C° 0 mm 1 mps 652 mmHg 52%
    15:00 +5°C° 0 mm 2 mps 651 mmHg 57%
    16:00 +5°C° 0 mm 2 mps 651 mmHg 61%
    17:00 +4°C° 0 mm 2 mps 651 mmHg 68%
    18:00 +2°C° 0 mm 2 mps 651 mmHg 74%
    19:00 +1°C° 0 mm 2 mps 650 mmHg 81%
    20:00 -1°C° 0 mm 2 mps 650 mmHg 81%
    21:00 -1°C° 0 mm 2 mps 650 mmHg 81%
    22:00 -1°C° 0 mm 2 mps 650 mmHg 81%
    23:00 -1°C° 0 mm 2 mps 650 mmHg 81%

    1 March, Sunday

    Time Temperature Precipitation Wind Pressure Humidity
    00:00 -1°C° 0 mm 3 mps 650 mmHg 81%
    01:00 -1°C° 0 mm 3 mps 650 mmHg 81%
    02:00 -1°C° 0 mm 3 mps 650 mmHg 81%
    03:00 -2°C° 0 mm 3 mps 649 mmHg 80%
    04:00 -2°C° 0 mm 3 mps 649 mmHg 80%
    05:00 -2°C° 0 mm 3 mps 649 mmHg 79%
    06:00 -1°C° 0 mm 3 mps 649 mmHg 79%
    07:00 -1°C° 0 mm 3 mps 650 mmHg 79%
    08:00 +1°C° 0 mm 3 mps 650 mmHg 75%
    09:00 +3°C° 0 mm 4 mps 650 mmHg 72%
    10:00 +4°C° 0 mm 4 mps 651 mmHg 69%
    11:00 +5°C° 0 mm 4 mps 651 mmHg 68%
    12:00 +6°C° 0 mm 4 mps 651 mmHg 68%
    13:00 +7°C° 0 mm 5 mps 651 mmHg 68%
    14:00 +7°C° 0 mm 5 mps 650 mmHg 69%
    15:00 +6°C° 0 mm 4 mps 650 mmHg 71%
    16:00 +6°C° 0 mm 4 mps 649 mmHg 73%
    17:00 +5°C° 0 mm 4 mps 649 mmHg 77%
    18:00 +5°C° 0 mm 4 mps 649 mmHg 81%
    19:00 +4°C° 0 mm 4 mps 649 mmHg 85%
    20:00 +4°C° 0 mm 4 mps 649 mmHg 85%
    21:00 +4°C° 0 mm 4 mps 649 mmHg 85%
    22:00 +4°C° 0 mm 4 mps 649 mmHg 84%
    23:00 +4°C° 0.1 mm 4 mps 649 mmHg 86%

    2 March, Monday

    Time Temperature Precipitation Wind Pressure Humidity
    00:00 +3°C° 0.1 mm 4 mps 649 mmHg 87%
    01:00 +3°C° 0.1 mm 4 mps 649 mmHg 88%
    02:00 +3°C° 1.5 mm 4 mps 648 mmHg 91%
    03:00 +3°C° 1.5 mm 4 mps 648 mmHg 94%
    04:00 +2°C° 1.5 mm 5 mps 648 mmHg 96%
    05:00 +4°C° 2 mm 4 mps 647 mmHg 96%
    06:00 +4°C° 2 mm 4 mps 647 mmHg 96%
    07:00 +4°C° 2 mm 4 mps 647 mmHg 96%
    08:00 +4°C° 0.4 mm 4 mps 648 mmHg 94%
    09:00 +5°C° 0.4 mm 4 mps 648 mmHg 92%
    10:00 +5°C° 0.4 mm 4 mps 648 mmHg 90%
    11:00 +6°C° 0.4 mm 4 mps 648 mmHg 87%
    12:00 +6°C° 0.4 mm 4 mps 648 mmHg 84%
    13:00 +7°C° 0.4 mm 4 mps 648 mmHg 81%
    14:00 +7°C° 0.1 mm 4 mps 648 mmHg 81%
    15:00 +7°C° 0.1 mm 4 mps 647 mmHg 81%
    16:00 +8°C° 0.1 mm 3 mps 647 mmHg 82%
    17:00 +7°C° 0.1 mm 3 mps 647 mmHg 86%
    18:00 +5°C° 0.1 mm 3 mps 647 mmHg 90%
    19:00 +5°C° 0.1 mm 3 mps 647 mmHg 94%
    20:00 +4°C° 0 mm 3 mps 646 mmHg 94%
    21:00 +4°C° 0 mm 3 mps 646 mmHg 94%
    22:00 +4°C° 0 mm 3 mps 646 mmHg 95%
    23:00 +4°C° 0.1 mm 3 mps 646 mmHg 94%

    3 March, Tuesday

    Time Temperature Precipitation Wind Pressure Humidity
    00:00 +4°C° 0.1 mm 3 mps 646 mmHg 93%
    01:00 +4°C° 0.1 mm 3 mps 645 mmHg 92%
    02:00 +4°C° 0.9 mm 4 mps 645 mmHg 93%
    03:00 +4°C° 0.9 mm 4 mps 645 mmHg 93%
    04:00 +4°C° 0.9 mm 4 mps 644 mmHg 94%
    05:00 +4°C° 2.3 mm 4 mps 644 mmHg 93%
    06:00 +4°C° 2.3 mm 4 mps 644 mmHg 92%
    07:00 +3°C° 2.3 mm 5 mps 644 mmHg 91%
    08:00 +3°C° 0.9 mm 5 mps 643 mmHg 91%
    09:00 +3°C° 0.9 mm 5 mps 643 mmHg 91%
    10:00 +3°C° 0.9 mm 6 mps 643 mmHg 91%
    11:00 +5°C° 0.2 mm 6 mps 643 mmHg 83%
    12:00 +7°C° 0.2 mm 6 mps 642 mmHg 76%
    13:00 +8°C° 0.2 mm 6 mps 642 mmHg 68%
    14:00 +8°C° 0.5 mm 7 mps 641 mmHg 72%
    15:00 +6°C° 0.5 mm 7 mps 640 mmHg 76%
    16:00 +5°C° 0.5 mm 7 mps 639 mmHg 81%
    17:00 +4°C° 3.7 mm 6 mps 639 mmHg 85%
    18:00 +5°C° 3.7 mm 5 mps 639 mmHg 89%
    19:00 +3°C° 3.7 mm 5 mps 639 mmHg 93%
    20:00 +3°C° 1.3 mm 5 mps 639 mmHg 92%
    21:00 +2°C° 1.3 mm 5 mps 639 mmHg 92%
    22:00 +2°C° 1.3 mm 5 mps 639 mmHg 91%
    23:00 +2°C° 1.1 mm 5 mps 639 mmHg 91%
    Show more